FW1349 Weather Reports


Display with metric or nautical units.
time (UTC)temp
F
wind
direction
speed
MPH
gust
MPH
rain 1hr
in
rain 24hr
in
rain mn
in
humidity
%
barometer
mb
20260507204516 61 90 1.0 4.0 0.00 0.00 0.00 25
20260507203517 61 90 4.0 9.0 0.00 0.00 0.00 26
20260507202516 60 90 3.0 6.0 0.00 0.00 0.00 26
20260507201516 60 90 3.0 8.0 0.00 0.00 0.00 25
20260507200517 60 113 2.0 6.0 0.00 0.00 0.00 27
20260507195516 60 113 4.0 9.0 0.00 0.00 0.00 25
20260507194517 60 135 2.0 9.0 0.00 0.00 0.00 25
20260507193516 59 90 3.0 7.0 0.00 0.00 0.00 26
20260507192516 59 68 3.0 5.0 0.00 0.00 0.00 29
20260507191517 58 90 3.0 11.0 0.00 0.00 0.00 29
20260507190516 58 113 4.0 8.0 0.00 0.00 0.00 27
20260507185516 58 113 4.0 10.0 0.00 0.00 0.00 27
20260507184516 58 135 2.0 5.0 0.00 0.00 0.00 27
20260507183557 58 90 3.0 11.0 0.00 0.00 0.00 29
20260507182536 57 68 3.0 8.0 0.00 0.00 0.00 28
20260507181516 56 113 2.0 4.0 0.00 0.00 0.00 32
20260507180515 56 90 5.0 8.0 0.00 0.00 0.00 30
20260507175515 56 113 3.0 7.0 0.00 0.00 0.00 29
20260507174516 56 113 4.0 10.0 0.00 0.00 0.00 32
20260507173515 55 113 4.0 10.0 0.00 0.00 0.00 31
20260507172516 55 90 3.0 6.0 0.00 0.00 0.00 30
20260507171515 55 68 3.0 7.0 0.00 0.00 0.00 29
20260507170515 55 113 4.0 8.0 0.00 0.00 0.00 29
20260507165535 55 68 3.0 8.0 0.00 0.00 0.00 30
20260507164536 55 68 3.0 5.0 0.00 0.00 0.00 33
20260507163517 54 90 3.0 7.0 0.00 0.00 0.00 36
20260507162538 54 90 2.0 4.0 0.00 0.00 0.00 39
20260507161517 53 90 3.0 7.0 0.00 0.00 0.00 38
20260507160538 53 158 2.0 5.0 0.00 0.00 0.00 36
20260507155517 53 45 3.0 9.0 0.00 0.00 0.00 39
20260507154517 52 90 3.0 8.0 0.00 0.00 0.00 36
20260507153517 52 158 3.0 5.0 0.00 0.00 0.00 40
20260507152557 51 338 2.0 5.0 0.00 0.00 0.00 39
20260507151517 51 113 3.0 7.0 0.00 0.00 0.00 41
20260507150538 51 113 2.0 5.0 0.00 0.00 0.00 41
20260507145517 50 90 2.0 4.0 0.00 0.00 0.00 42
20260507144539 49 203 1.0 3.0 0.00 0.00 0.00 44
20260507143517 49 0 1.0 3.0 0.00 0.00 0.00 46
20260507142517 48 338 2.0 3.0 0.00 0.00 0.00 49
20260507141518 47 338 1.0 4.0 0.00 0.00 0.00 49 886.5
20260507140517 46 68 1.0 5.0 0.00 0.00 0.00 57 886.5
20260507135537 44 68 1.0 4.0 0.00 0.00 0.00 64 886.5
20260507134557 42 45 1.0 3.0 0.00 0.00 0.00 75 886.4
20260507133516 40 113 1.0 4.0 0.00 0.00 0.00 85 886.4
20260507132517 38 0.0 2.0 0.00 0.00 0.00 89 886.3
20260507131516 36 0.0 1.0 0.00 0.00 0.00 89 886.3
20260507130516 35 0.0 1.0 0.00 0.00 0.00 89 886.2
20260507125516 34 0.0 0.0 0.00 0.00 0.00 89 886.2
20260507124516 34 0.0 0.0 0.00 0.00 0.00 88 886.2
20260507123517 33 0.0 0.0 0.00 0.00 0.00 88 886.2
20260507122537 32 0.0 0.0 0.00 0.00 0.00 87 886.2
20260507121516 32 0.0 0.0 0.00 0.00 0.00 86 886.2
20260507120517 31 0.0 0.0 0.00 0.00 0.00 85 886.2
20260507115516 31 0.0 0.0 0.00 0.00 0.00 84 886.1
20260507114516 30 0.0 0.0 0.00 0.00 0.00 83 886.1
20260507113517 30 0.0 0.0 0.00 0.00 0.00 83 886.2
20260507112516 30 0.0 0.0 0.00 0.00 0.00 83 886.2
20260507111516 31 0.0 0.0 0.00 0.00 0.00 82 917.5
20260507110537 31 0.0 0.0 0.00 0.00 0.00 82 917.5
20260507105516 31 0.0 0.0 0.00 0.00 0.00 82 917.5
20260507104516 31 0.0 0.0 0.00 0.00 0.00 81 917.5
20260507103516 31 0.0 0.0 0.00 0.00 0.00 81 917.5
20260507102517 31 0.0 0.0 0.00 0.00 0.00 81 917.5
20260507101516 31 0.0 0.0 0.00 0.00 0.00 80 917.5
20260507100516 32 0.0 0.0 0.00 0.00 0.00 80 917.5
20260507095515 32 0.0 0.0 0.00 0.00 0.00 80 917.5
20260507094517 32 0.0 0.0 0.00 0.00 0.00 80 917.5
20260507093515 32 0.0 0.0 0.00 0.00 0.00 78 917.5
20260507092516 32 0.0 0.0 0.00 0.00 0.00 78 917.5
20260507091515 33 0.0 0.0 0.00 0.00 0.00 77 917.5
20260507090515 33 0.0 1.0 0.00 0.00 0.00 77 917.6
20260507085515 33 0.0 0.0 0.00 0.00 0.00 76 917.6
20260507084536 33 0.0 0.0 0.00 0.00 0.00 75 917.5
20260507083515 34 0.0 0.0 0.00 0.00 0.00 75 917.5
20260507082515 34 0.0 1.0 0.00 0.00 0.00 75 917.6
20260507081517 34 0.0 0.0 0.00 0.00 0.00 74 917.5
20260507080517 35 0.0 2.0 0.00 0.00 0.00 73 917.6
20260507075517 35 0.0 0.0 0.00 0.00 0.00 71 917.6
20260507074517 36 0.0 0.0 0.00 0.00 0.00 70 917.6
20260507073518 36 0.0 0.0 0.00 0.00 0.00 69 917.6
20260507072517 36 0.0 0.0 0.00 0.00 0.00 69 917.6
20260507071517 37 0.0 0.0 0.00 0.00 0.00 68 917.6
20260507070518 37 0.0 0.0 0.00 0.00 0.00 68 917.6
20260507065517 38 0.0 0.0 0.00 0.00 0.00 67 917.7
20260507064517 39 0.0 0.0 0.00 0.00 0.00 66 1090.3
20260507063517 39 0.0 0.0 0.00 0.00 0.00 66 1090.3
20260507062517 40 0.0 0.0 0.00 0.00 0.00 65 1090.3
20260507061517 40 0.0 0.0 0.00 0.00 0.00 65 1090.3
20260507060517 41 0.0 0.0 0.00 0.00 0.00 65 1090.3
20260507055517 41 0.0 0.0 0.00 0.00 0.00 65 1090.4
20260507054557 41 0.0 0.0 0.00 0.00 0.00 65 1090.4
20260507053516 41 0.0 0.0 0.00 0.00 0.00 65 1090.4
20260507052537 41 0.0 0.0 0.00 0.00 0.00 65 1090.4
20260507051517 41 0.0 0.0 0.00 0.00 0.00 64 1090.4
20260507050517 41 0.0 0.0 0.00 0.00 0.00 63 1090.3
20260507045517 41 0.0 0.0 0.00 0.00 0.00 64 1090.3
20260507044516 41 0.0 0.0 0.00 0.00 0.00 64 1090.3
20260507043536 41 0.0 0.0 0.00 0.00 0.00 64 1090.3
20260507042557 41 0.0 0.0 0.00 0.00 0.00 63 1017.3
20260507041517 41 0.0 0.0 0.00 0.00 0.00 62 1017.3
20260507040516 41 0.0 0.0 0.00 0.00 0.00 62 1017.3
20260507035515 41 0.0 0.0 0.00 0.00 0.00 61 1017.3
20260507034517 41 0.0 0.0 0.00 0.00 0.00 61 1017.3
20260507033515 41 0.0 0.0 0.00 0.00 0.00 61 1017.3
20260507032516 41 0.0 0.0 0.00 0.00 0.00 59 1017.3
20260507031515 41 0.0 0.0 0.00 0.00 0.00 58 1017.3
20260507030515 41 0.0 0.0 0.00 0.00 0.00 57 1017.3
20260507030016 41 0.0 0.0 0.00 0.00 0.00 57 1017.3
20260507025017 42 0.0 0.0 0.00 0.00 0.00 57 1017.3
20260507024016 42 0.0 0.0 0.00 0.00 0.00 54 1017.3
20260507023016 43 0.0 0.0 0.00 0.00 0.00 53 1017.3
20260507022037 43 0.0 0.0 0.00 0.00 0.00 53 1017.3
20260507021017 43 0.0 0.0 0.00 0.00 0.00 52
20260507020016 44 0.0 0.0 0.00 0.00 0.00 51
20260507015016 44 0.0 0.0 0.00 0.00 0.00 49
20260507014016 45 0.0 0.0 0.00 0.00 0.00 49
20260507013016 45 0.0 2.0 0.00 0.00 0.00 48
20260507012016 45 68 1.0 3.0 0.00 0.00 0.00 47
20260507010017 46 90 1.0 3.0 0.00 0.00 0.00 46
20260507005016 46 90 2.0 6.0 0.00 0.00 0.00 46
20260507004016 46 68 2.0 4.0 0.00 0.00 0.00 46
20260507003016 47 45 2.0 8.0 0.00 0.00 0.00 46
20260507002017 47 68 4.0 9.0 0.00 0.00 0.00 46
20260507001017 47 68 3.0 9.0 0.00 0.00 0.00 46
20260507000016 47 90 2.0 8.0 0.00 0.00 0.00 46
20260506235016 47 90 2.0 8.0 0.00 0.00 0.00 45
20260506234016 47 90 2.0 8.0 0.00 0.00 0.00 45
20260506233015 47 113 2.0 6.0 0.00 0.00 0.00 45
20260506232036 48 68 3.0 8.0 0.00 0.00 0.00 45
20260506231016 48 68 3.0 8.0 0.00 0.00 0.00 45
20260506230036 47 135 2.0 4.0 0.00 0.00 0.00 46
20260506225015 47 68 3.0 7.0 0.00 0.00 0.00 45
20260506224015 47 135 2.0 8.0 0.00 0.00 0.00 46
20260506223056 47 90 3.0 7.0 0.00 0.00 0.00 46
20260506222015 47 113 4.0 8.0 0.00 0.00 0.00 46
20260506221017 47 113 2.0 5.0 0.00 0.00 0.00 47
20260506220018 47 68 4.0 13.0 0.00 0.00 0.00 47
20260506215017 47 90 4.0 11.0 0.00 0.00 0.00 47
20260506214017 47 68 2.0 6.0 0.00 0.00 0.00 48
20260506213017 47 90 3.0 8.0 0.00 0.00 0.00 47
20260506212018 47 90 3.0 7.0 0.00 0.00 0.00 50
20260506211017 47 23 2.0 4.0 0.00 0.00 0.00 50
20260506210017 47 90 3.0 8.0 0.00 0.00 0.00 49